| time (UTC) | temp F | wind direction | speed knots | gust knots | rain 1hr in | rain 24hr in | rain mn in | humidity % | barometer mb |
| 20260503071518 | 78 | 18 | 0.0 | 0.0 | 0.00 | 0.00 | 0.00 | 43 | 1018.9 |
| 20260503054605 | 54 | 18 | 0.0 | 0.9 | 0.00 | 0.00 | 0.00 | 72 | 1019.0 |
| 20260503053100 | 53 | 18 | 0.0 | 0.9 | 0.00 | 0.00 | 0.00 | 74 | 1018.9 |
| 20260503051600 | 51 | 18 | 0.0 | 0.9 | 0.00 | 0.00 | 0.00 | 76 | 1018.9 |
| 20260503050059 | 51 | 18 | 0.0 | 0.0 | 0.00 | 0.00 | 0.00 | 79 | 1018.9 |
| 20260503044609 | 50 | 18 | 0.0 | 0.0 | 0.00 | 0.00 | 0.00 | 79 | 1018.9 |
| 20260503043059 | 49 | 18 | 0.0 | 0.0 | 0.00 | 0.00 | 0.00 | 79 | 1018.9 |
| 20260503041555 | 50 | 18 | 0.0 | 0.0 | 0.00 | 0.00 | 0.00 | 78 | 1018.8 |
| 20260503034559 | 51 | 18 | 0.0 | 0.0 | 0.00 | 0.00 | 0.00 | 76 | 1018.8 |
| 20260503033053 | 51 | 18 | 0.0 | 0.0 | 0.00 | 0.00 | 0.00 | 76 | 1018.7 |
| 20260503031550 | 52 | 18 | 0.0 | 0.0 | 0.00 | 0.00 | 0.00 | 75 | 1018.8 |
| 20260503030113 | 52 | 18 | 0.0 | 0.0 | 0.00 | 0.00 | 0.00 | 76 | 1018.8 |
| 20260503024548 | 52 | 18 | 0.0 | 0.9 | 0.00 | 0.00 | 0.00 | 76 | 1018.8 |
| 20260503023046 | 51 | 18 | 0.0 | 0.0 | 0.00 | 0.00 | 0.00 | 76 | 1018.8 |
| 20260503021545 | 51 | 18 | 0.0 | 0.0 | 0.00 | 0.00 | 0.00 | 76 | 1018.9 |
| 20260503020044 | 51 | 18 | 0.0 | 0.0 | 0.00 | 0.00 | 0.00 | 75 | 1019.0 |
| 20260503014557 | 52 | 18 | 0.0 | 0.0 | 0.00 | 0.00 | 0.00 | 74 | 1019.0 |
| 20260503013041 | 52 | 18 | 0.0 | 0.0 | 0.00 | 0.00 | 0.00 | 73 | 1019.1 |
| 20260503011547 | 53 | 18 | 0.0 | 0.0 | 0.00 | 0.00 | 0.00 | 72 | 1019.1 |
| 20260503010036 | 53 | 18 | 0.0 | 0.0 | 0.00 | 0.00 | 0.00 | 71 | 1019.2 |
| 20260503004538 | 53 | 18 | 0.0 | 0.0 | 0.00 | 0.00 | 0.00 | 70 | 1019.3 |
| 20260503003043 | 53 | 18 | 0.0 | 0.0 | 0.00 | 0.00 | 0.00 | 71 | 1019.3 |
| 20260503001531 | 54 | 18 | 0.0 | 0.0 | 0.00 | 0.00 | 0.00 | 70 | 1019.4 |
| 20260503000033 | 54 | 18 | 0.0 | 0.0 | 0.00 | 0.00 | 0.00 | 70 | 1019.5 |
| 20260502234527 | 55 | 18 | 0.0 | 0.0 | 0.00 | 0.00 | 0.00 | 69 | 1019.6 |
| 20260502233025 | 55 | 18 | 0.0 | 0.0 | 0.00 | 0.00 | 0.00 | 69 | 1019.6 |
| 20260502231522 | 55 | 18 | 0.0 | 0.0 | 0.00 | 0.00 | 0.00 | 68 | 1019.8 |
| 20260502230019 | 56 | 18 | 0.0 | 0.0 | 0.00 | 0.00 | 0.00 | 67 | 1019.9 |
| 20260502224517 | 56 | 18 | 0.0 | 0.0 | 0.00 | 0.00 | 0.00 | 67 | 1020.0 |
| 20260502223016 | 57 | 18 | 0.0 | 0.0 | 0.00 | 0.00 | 0.00 | 66 | 1020.1 |
| 20260502221514 | 57 | 18 | 0.0 | 0.0 | 0.00 | 0.00 | 0.00 | 65 | 1020.1 |
| 20260502220013 | 58 | 18 | 0.0 | 0.0 | 0.00 | 0.00 | 0.00 | 64 | 1020.2 |
| 20260502214513 | 58 | 18 | 0.0 | 0.0 | 0.00 | 0.00 | 0.00 | 63 | 1020.2 |
| 20260502213032 | 59 | 18 | 0.0 | 0.0 | 0.00 | 0.00 | 0.00 | 62 | 1020.2 |
| 20260502211510 | 60 | 18 | 0.0 | 0.0 | 0.00 | 0.00 | 0.00 | 61 | 1020.3 |
| 20260502210011 | 61 | 18 | 0.0 | 0.0 | 0.00 | 0.00 | 0.00 | 59 | 1020.3 |
| 20260502204509 | 61 | 18 | 0.0 | 0.9 | 0.00 | 0.00 | 0.00 | 58 | 1020.4 |
| 20260502203008 | 61 | 18 | 0.0 | 0.0 | 0.00 | 0.00 | 0.00 | 58 | 1020.4 |
| 20260502201514 | 61 | 18 | 0.0 | 0.0 | 0.00 | 0.00 | 0.00 | 59 | 1020.4 |
| 20260502200007 | 61 | 18 | 0.0 | 0.0 | 0.00 | 0.00 | 0.00 | 58 | 1020.5 |
| 20260502194505 | 62 | 18 | 0.0 | 0.0 | 0.00 | 0.00 | 0.00 | 56 | 1020.4 |
| 20260502193005 | 63 | 18 | 0.0 | 0.0 | 0.00 | 0.00 | 0.00 | 55 | 1020.3 |
| 20260502191507 | 64 | 18 | 0.0 | 0.0 | 0.00 | 0.00 | 0.00 | 54 | 1020.3 |
| 20260502190008 | 65 | 18 | 0.0 | 0.0 | 0.00 | 0.00 | 0.00 | 52 | 1020.3 |
| 20260502184502 | 66 | 18 | 0.0 | 0.0 | 0.00 | 0.00 | 0.00 | 51 | 1020.2 |
| 20260502183002 | 68 | 18 | 0.0 | 0.0 | 0.00 | 0.00 | 0.00 | 48 | 1020.1 |
| 20260502181502 | 69 | 18 | 0.0 | 1.7 | 0.00 | 0.00 | 0.00 | 45 | 1020.0 |
| 20260502163053 | 73 | 30 | 0.9 | 2.6 | 0.00 | 0.00 | 0.00 | 37 | 1020.4 |
| 20260502161553 | 73 | 32 | 0.9 | 4.3 | 0.00 | 0.00 | 0.00 | 37 | 1020.6 |
| 20260502151600 | 74 | 37 | 0.0 | 5.2 | 0.00 | 0.00 | 0.00 | 36 | 1021.0 |
| 20260502123025 | 78 | 158 | 0.0 | 0.9 | 0.00 | 0.00 | 0.00 | 32 | 1023.1 |
| 20260502121527 | 79 | 303 | 0.0 | 1.7 | 0.00 | 0.00 | 0.00 | 32 | 1023.2 |
| 20260502114520 | 77 | 24 | 0.0 | 6.1 | 0.00 | 0.00 | 0.00 | 32 | 1023.6 |
| 20260502113018 | 78 | 42 | 0.0 | 4.3 | 0.00 | 0.00 | 0.00 | 30 | 1023.8 |
| 20260502111516 | 76 | 168 | 0.9 | 3.5 | 0.00 | 0.00 | 0.00 | 32 | 1023.9 |
| 20260502110014 | 78 | 17 | 0.0 | 7.0 | 0.00 | 0.00 | 0.00 | 31 | 1024.2 |
| 20260502104511 | 79 | 14 | 1.7 | 3.5 | 0.00 | 0.00 | 0.00 | 29 | 1024.5 |
| 20260502103017 | 79 | 4 | 0.9 | 6.1 | 0.00 | 0.00 | 0.00 | 29 | 1024.6 |
| 20260502101507 | 78 | 22 | 0.9 | 0.0 | 0.00 | 0.00 | 0.00 | 30 | 1024.8 |
| 20260502080103 | 76 | 25 | 0.0 | 1.7 | 0.00 | 0.00 | 0.00 | 35 | 1025.6 |